Simultaneous Nadir Overpasses (SNOs) Predictions

Prediction of SNOs between GOES-16 and LANDSAT-8 Satellite Orbit:

Table of predicted SNOs for the next 14.0 days since TLE Epoch: 3/28/2025
Index Date Time (GOES-16) GOES-16 Lat,Lon LANDSAT-8 Lat,Lon Distance(km) Time Diff (sec)
1 03/29/2025 15:08:49 0.06, -75.52 -0.28, -73.92 181.53 80
2 03/30/2025 03:30:13 -0.06, -75.50 -0.85, -79.11 410.75 80
3 04/01/2025 03:18:02 -0.06, -75.51 -0.21, -76.16 73.92 80
4 04/03/2025 03:03:11 -0.06, -75.52 0.46, -73.21 263.22 80
5 04/03/2025 15:24:26 0.06, -75.54 0.67, -78.36 320.90 80
6 04/05/2025 15:14:54 0.05, -75.56 0.02, -75.41 17.21 80
7 04/07/2025 15:02:42 0.05, -75.59 -0.65, -72.46 356.52 80
8 04/08/2025 03:24:05 -0.05, -75.58 -0.49, -77.64 234.50 80
9 04/10/2025 03:09:12 -0.04, -75.62 0.16, -74.69 106.32 80
10 04/10/2025 15:30:27 0.04, -75.65 0.94, -79.84 477.28 80
